Wind_Speed
10 8 7 7 9 7 8 7 6 6 7 8 9 10 9 10 11 10 12 13 12 12 11 12 11 13 12 13 12 12 12 11 10 9 10 13 16 19 18 12 4 3 5
9 8 8 8 6 6 4 4 5 7 9 8 9 11 10 10 12 11 12 13 12 11 11 11 11 11 11 12 11 11 10 12 12 12 12 13 14 15 17 12 9 7 7
11 9 8 7 7 7 5 8 8 9 11 10 11 12 12 11 12 12 12 12 10 10 10 10 9 9 11 12 12 13 13 14 14 15 14 13 13 13 12 11 10 10 11
9 9 10 11 11 9 8 9 10 10 10 10 11 13 14 12 11 11 12 11 9 9 10 10 11 10 12 13 13 16 17 17 17 16 16 15 14 13 14 12 11 12 13
10 13 13 12 12 11 13 12 11 9 9 9 10 13 14 14 12 10 12 13 12 12 13 13 14 16 18 19 18 18 18 18 18 17 17 18 18 20 17 15 15 13 12
12 14 13 12 14 13 14 15 14 12 12 11 12 13 13 14 15 12 11 12 12 13 13 16 17 18 19 19 18 17 18 18 18 18 19 20 20 19 17 15 14 14 14
14 16 15 13 14 15 15 16 17 16 15 14 12 10 11 12 13 14 11 13 14 15 16 18 19 20 18 17 16 16 17 16 15 15 15 16 17 16 16 16 14 14 13
15 15 15 14 14 14 13 16 16 14 14 14 13 10 10 9 8 11 14 17 18 19 19 19 18 17 17 15 14 12 11 10 11 11 10 10 9 10 12 13 11 10 12
16 17 16 15 13 13 13 14 14 13 12 10 9 9 8 9 9 12 16 19 18 17 17 16 15 12 11 8 7 6 7 8 7 6 8 7 10 13 13 12 12 13 13
15 17 16 14 13 11 11 11 12 12 12 10 9 7 7 7 11 15 16 16 14 13 11 11 9 6 5 4 6 7 6 8 9 9 9 9 12 15 17 16 18 18 17
14 14 15 14 12 11 10 9 9 11 11 11 11 11 10 8 9 12 12 12 10 8 7 5 5 5 5 4 6 7 8 8 11 10 11 16 17 18 18 20 20 21 21
15 14 13 12 11 9 8 8 7 8 9 10 11 11 12 11 9 7 7 7 5 4 2 4 5 5 4 4 6 6 6 4 6 8 12 14 16 17 18 18 18 20 23
14 14 12 12 12 10 9 8 7 6 6 8 10 11 12 11 10 9 8 7 5 4 2 4 5 6 7 9 10 9 7 4 5 9 12 14 17 17 17 19 20 19 22
14 14 13 11 10 9 8 7 7 6 6 7 9 10 12 13 13 12 11 9 7 6 5 5 8 9 9 9 8 8 8 7 9 12 15 16 18 21 22 25 26 28 31
15 14 13 11 9 8 7 6 5 5 5 6 8 9 11 13 13 12 11 10 9 7 7 8 8 7 8 8 9 8 8 9 10 12 15 17 21 22 25 28 32 36 40
17 15 14 12 10 8 7 4 2 2 2 3 6 9 12 13 13 13 11 10 10 9 8 6 5 5 6 8 12 13 15 13 17 17 18 20 24 30 31 33 36 38 37
20 18 16 14 13 11 9 7 6 3 3 2 4 9 12 13 14 13 13 13 11 9 6 3 3 5 7 9 12 14 16 15 19 22 22 24 28 32 35 38 42 45 40
22 20 18 17 16 14 13 11 10 7 6 6 4 7 12 13 14 14 12 11 9 6 4 2 2 3 6 9 12 15 17 19 20 22 24 31 35 37 38 41 43 46 47
23 22 20 20 19 17 16 14 13 11 10 9 8 8 11 14 15 14 12 8 7 4 2 1 1 3 8 11 14 17 20 21 23 26 30 34 38 41 43 44 46 47 50
26 25 24 23 20 19 17 16 16 14 13 12 10 10 12 16 16 13 11 9 7 4 1 2 6 8 13 17 18 18 20 23 25 28 33 37 38 39 43 48 50 51 49
28 27 26 23 20 19 18 17 17 15 14 13 11 11 14 17 15 13 10 8 7 3 3 6 9 11 13 14 15 17 20 24 30 33 33 37 40 41 44 42 46 51 50
30 29 26 24 22 19 20 17 14 13 13 13 14 14 16 15 13 10 7 5 3 3 5 7 8 9 10 14 17 20 22 23 22 31 32 34 42 42 46 47 49 48 49
31 29 26 25 21 21 18 14 13 13 13 13 13 14 14 12 11 8 5 4 5 7 7 8 8 11 13 17 18 20 23 25 28 32 37 35 39 39 41 46 47 49 51
30 28 26 25 22 20 16 15 13 12 12 15 16 15 14 12 10 6 4 6 7 8 10 11 9 10 13 17 20 22 25 26 28 33 39 42 43 41 42 43 47 51 54
30 28 27 25 20 18 17 15 13 12 14 18 17 15 14 12 10 8 8 8 8 10 14 13 14 15 18 22 26 27 30 30 30 33 40 45 45 44 44 45 46 49 53
33 31 27 23 22 20 16 14 13 14 17 20 19 17 15 12 12 13 10 10 9 14 17 18 20 21 23 27 32 34 33 33 34 33 41 46 50 51 48 47 47 49 50
Wind_Direction
119 107 106 91 91 99 101 107 110 101 91 96 93 86 92 85 89 91 89 91 89 88 84 86 83 82 82 83 78 83 86 85 76 59 43 35 39 43 54 75 95 41 7
110 105 97 98 97 91 82 93 105 102 100 99 95 91 87 91 87 87 87 87 91 93 87 81 80 82 78 69 68 70 60 55 51 52 45 40 40 42 48 55 60 47 38
104 101 97 92 90 91 98 107 109 114 109 106 100 98 92 96 94 93 89 87 84 86 89 91 86 83 84 83 76 67 63 62 60 54 52 47 42 42 46 36 33 30 22
110 105 94 94 93 97 99 103 114 116 110 105 105 104 103 104 110 104 100 96 93 84 84 82 76 76 77 76 74 72 68 62 60 60 55 46 41 39 36 24 18 19 10
118 104 107 113 105 99 98 99 108 118 117 106 108 109 110 107 109 101 96 98 96 89 88 89 90 84 80 73 69 66 64 61 59 55 49 40 32 28 27 18 15 12 10
114 110 108 102 104 103 96 90 93 110 114 108 112 118 119 116 115 110 100 103 102 100 95 95 91 87 81 78 71 62 55 47 42 37 36 31 27 24 21 16 14 4 360
123 119 113 108 105 102 97 89 85 94 102 109 116 117 113 113 113 117 115 109 109 108 109 100 94 86 77 67 57 47 36 30 31 31 24 16 15 8 4 0 352 341 336
125 130 125 123 114 107 102 92 92 91 95 103 112 114 108 107 109 110 116 122 123 119 114 104 92 85 73 59 51 35 16 20 15 13 20 32 26 12 8 2 2 342 333
132 132 129 125 120 115 105 103 101 100 104 112 113 107 99 104 104 114 125 128 124 114 105 95 85 74 65 51 35 38 39 42 45 33 35 26 27 29 16 12 357 342 336
139 131 134 126 115 115 110 105 109 109 113 121 122 116 113 116 114 132 133 124 114 103 95 89 82 76 62 54 47 38 49 65 68 66 61 45 32 23 15 7 4 7 351
148 143 143 140 133 123 109 114 111 116 118 126 138 135 134 144 134 136 134 128 124 108 87 75 69 66 85 85 31 27 43 73 57 45 29 26 20 14 9 8 7 2 348
154 153 152 148 151 146 133 127 129 125 129 133 136 143 146 157 171 167 141 137 125 103 83 72 69 66 55 24 32 37 46 54 33 23 19 11 4 6 5 5 354 356 356
165 160 160 156 153 153 143 135 128 127 142 141 136 143 155 163 173 184 195 199 182 172 153 102 75 75 74 68 66 65 68 50 357 358 0 2 1 3 1 357 355 352 349
178 173 175 171 158 140 127 121 117 116 124 135 139 159 165 170 176 186 190 185 176 165 148 115 104 90 73 63 68 62 46 25 5 1 352 351 359 360 357 353 348 344 342
191 191 190 188 181 163 153 140 122 101 104 131 155 167 173 173 175 181 181 171 161 153 142 129 112 96 79 65 58 54 38 16 3 353 354 355 357 354 350 344 347 342 341
199 203 205 205 201 194 180 174 170 117 112 134 156 175 180 174 171 172 171 168 167 155 145 135 111 80 53 35 30 26 17 22 10 2 2 0 355 348 344 341 337 334 333
204 214 215 214 215 214 212 219 229 202 248 230 171 182 189 183 176 175 174 173 175 173 166 160 95 41 30 23 12 10 7 356 352 350 349 349 345 342 339 337 333 337 333
206 214 220 220 218 226 237 237 243 229 230 244 223 193 184 185 186 185 185 186 183 178 171 137 94 30 4 358 350 354 351 341 346 344 347 342 339 338 337 334 332 331 334
212 218 224 230 234 236 242 245 243 237 231 229 228 220 192 188 186 186 187 181 182 169 127 67 29 355 332 340 342 344 341 344 346 347 343 338 337 333 331 329 329 327 328
218 223 226 232 240 249 249 245 244 241 238 235 226 222 194 193 192 185 185 183 188 179 183 348 338 335 333 339 338 347 346 347 350 343 339 337 333 332 329 329 331 332 331
222 226 230 238 246 252 249 241 237 235 235 237 231 222 197 190 187 191 192 181 182 216 301 321 326 327 326 332 343 346 353 351 348 339 339 335 333 333 331 332 329 326 326
223 227 234 240 244 240 241 234 223 224 237 240 228 222 206 193 192 199 196 192 225 283 311 311 318 324 333 334 342 339 343 348 349 335 339 345 334 335 332 333 330 325 322
225 230 233 239 231 229 235 233 226 224 232 236 216 202 202 201 189 190 211 230 264 288 291 295 316 314 329 324 327 333 337 343 343 337 337 346 337 338 334 332 328 326 324
225 233 236 232 229 233 231 225 229 230 226 210 194 187 189 189 197 205 233 265 264 262 281 296 308 315 318 317 320 327 333 340 340 337 333 343 338 339 339 336 328 325 324
227 232 231 229 232 224 220 225 227 216 211 201 196 193 198 203 221 237 249 264 274 281 286 296 309 315 318 319 321 329 330 338 340 338 330 339 339 337 340 339 332 325 322
226 229 226 227 223 223 223 227 221 215 210 208 212 213 215 226 244 260 265 270 276 279 281 295 304 308 313 317 318 323 331 333 332 338 328 337 338 336 339 338 333 326 326
Height
5938 5939 5939 5939 5938 5937 5937 5937 5937 5938 5937 5938 5937 5938 5938 5938 5938 5937 5938 5938 5937 5938 5936 5937 5936 5935 5934 5934 5933 5933 5932 5931 5931 5931 5930 5928 5925 5922 5921 5923 5921 5921 5919
5940 5940 5941 5940 5939 5939 5939 5939 5939 5939 5939 5939 5939 5940 5940 5941 5941 5940 5940 5941 5940 5939 5940 5939 5939 5938 5937 5937 5937 5937 5936 5936 5935 5934 5933 5931 5928 5927 5926 5922 5922 5921 5919
5942 5942 5942 5941 5941 5941 5941 5940 5940 5940 5941 5941 5941 5942 5943 5943 5944 5943 5943 5943 5942 5942 5942 5942 5941 5940 5940 5939 5938 5939 5939 5938 5937 5936 5934 5932 5930 5929 5928 5926 5925 5924 5922
5943 5943 5943 5942 5943 5943 5943 5942 5942 5942 5942 5943 5943 5944 5945 5945 5945 5945 5946 5945 5944 5944 5944 5944 5944 5943 5943 5942 5941 5941 5941 5941 5940 5938 5937 5935 5933 5932 5932 5930 5929 5929 5927
5944 5944 5944 5944 5945 5946 5945 5945 5944 5944 5944 5945 5945 5945 5946 5947 5947 5947 5947 5947 5947 5946 5946 5947 5946 5946 5946 5945 5945 5945 5945 5943 5943 5941 5939 5937 5936 5935 5935 5933 5933 5930 5929
5945 5945 5945 5946 5947 5948 5947 5947 5946 5946 5945 5946 5946 5947 5948 5949 5949 5949 5949 5949 5948 5949 5949 5949 5949 5949 5949 5949 5948 5948 5947 5946 5945 5945 5943 5941 5938 5937 5935 5933 5933 5931 5929
5947 5947 5947 5948 5948 5950 5950 5948 5948 5948 5948 5948 5949 5949 5950 5951 5951 5952 5951 5951 5951 5952 5952 5952 5952 5952 5952 5951 5951 5950 5949 5948 5947 5946 5946 5944 5942 5938 5936 5935 5933 5931 5929
5948 5949 5949 5950 5951 5951 5952 5951 5951 5951 5951 5951 5951 5951 5953 5954 5953 5953 5953 5953 5953 5953 5954 5955 5955 5955 5955 5954 5953 5952 5951 5950 5950 5949 5948 5946 5944 5941 5940 5937 5935 5933 5930
5950 5951 5951 5952 5953 5953 5953 5953 5953 5954 5955 5954 5954 5955 5955 5955 5955 5954 5955 5954 5955 5956 5957 5958 5958 5958 5958 5957 5956 5955 5955 5954 5953 5951 5950 5949 5947 5945 5942 5939 5937 5934 5930
5952 5952 5953 5953 5953 5954 5955 5955 5955 5956 5956 5957 5957 5957 5958 5958 5958 5957 5957 5958 5959 5959 5960 5961 5961 5961 5961 5960 5959 5959 5958 5956 5955 5953 5952 5951 5949 5946 5943 5939 5936 5933 5930
5952 5954 5954 5954 5955 5955 5956 5957 5957 5957 5957 5958 5959 5959 5959 5961 5960 5961 5961 5962 5962 5963 5964 5964 5964 5963 5962 5962 5961 5960 5959 5959 5957 5957 5956 5953 5951 5948 5944 5940 5936 5933 5929
5952 5954 5955 5955 5955 5956 5957 5957 5958 5958 5958 5959 5960 5960 5960 5961 5962 5963 5964 5965 5965 5966 5966 5966 5966 5965 5964 5963 5962 5961 5960 5960 5959 5958 5957 5955 5952 5949 5945 5941 5938 5934 5930
5953 5955 5956 5956 5957 5957 5957 5957 5958 5958 5959 5960 5961 5961 5961 5962 5963 5965 5965 5966 5967 5967 5967 5967 5966 5966 5965 5963 5962 5962 5961 5960 5960 5959 5957 5954 5951 5948 5945 5941 5937 5933 5929
5953 5954 5956 5957 5957 5957 5958 5957 5958 5959 5959 5960 5961 5962 5962 5963 5964 5965 5966 5967 5968 5968 5968 5968 5968 5968 5966 5966 5965 5964 5963 5962 5960 5959 5956 5953 5950 5947 5944 5940 5935 5930 5926
5952 5954 5956 5957 5958 5958 5958 5958 5958 5959 5959 5960 5961 5962 5963 5964 5964 5965 5966 5967 5968 5969 5969 5970 5970 5969 5967 5967 5966 5964 5963 5961 5960 5957 5956 5953 5950 5946 5942 5937 5932 5928 5923
5949 5952 5955 5956 5957 5958 5958 5958 5957 5958 5959 5960 5961 5962 5963 5964 5965 5965 5966 5967 5967 5969 5970 5970 5970 5969 5968 5967 5966 5964 5962 5960 5958 5956 5954 5951 5948 5944 5939 5935 5929 5924 5919
5946 5949 5952 5955 5956 5957 5957 5957 5957 5958 5958 5959 5960 5960 5962 5963 5965 5965 5966 5967 5968 5969 5970 5970 5970 5969 5968 5967 5965 5963 5961 5959 5957 5954 5950 5948 5945 5940 5935 5930 5923 5915 5911
5942 5945 5949 5952 5954 5955 5955 5956 5956 5956 5956 5957 5958 5958 5960 5962 5964 5964 5965 5966 5967 5968 5969 5969 5969 5968 5967 5966 5964 5963 5960 5958 5955 5951 5949 5944 5939 5935 5930 5924 5918 5911 5905
5939 5942 5944 5947 5949 5952 5953 5953 5953 5954 5954 5954 5956 5956 5958 5960 5961 5963 5964 5966 5967 5967 5967 5967 5967 5967 5965 5964 5963 5960 5957 5954 5951 5948 5944 5940 5934 5928 5923 5918 5912 5906 5900
5936 5939 5940 5942 5946 5947 5949 5949 5949 5951 5951 5951 5953 5954 5956 5957 5959 5961 5962 5964 5964 5965 5966 5965 5964 5963 5962 5960 5959 5957 5954 5951 5948 5944 5939 5934 5931 5926 5919 5910 5904 5897 5891
5932 5935 5937 5939 5942 5944 5944 5945 5946 5947 5948 5948 5949 5951 5953 5955 5957 5959 5960 5962 5963 5964 5964 5964 5963 5961 5960 5958 5957 5954 5952 5949 5944 5939 5937 5931 5926 5919 5912 5909 5902 5891 5884
5928 5931 5934 5935 5938 5940 5940 5942 5943 5944 5944 5945 5946 5948 5951 5953 5955 5957 5959 5960 5961 5962 5962 5962 5961 5959 5958 5956 5954 5952 5949 5946 5945 5937 5932 5927 5919 5914 5906 5901 5893 5886 5878
5923 5928 5930 5932 5934 5935 5937 5939 5940 5941 5942 5943 5944 5947 5949 5952 5953 5956 5958 5959 5960 5960 5960 5960 5959 5957 5955 5952 5951 5948 5945 5942 5937 5932 5925 5924 5916 5910 5902 5895 5887 5879 5869
5919 5922 5926 5928 5930 5932 5934 5936 5937 5938 5940 5941 5943 5945 5947 5950 5952 5954 5956 5957 5957 5957 5957 5956 5956 5954 5952 5949 5946 5943 5940 5937 5934 5927 5920 5917 5911 5906 5898 5890 5879 5869 5859
5914 5917 5920 5924 5928 5929 5931 5933 5934 5935 5937 5940 5942 5944 5946 5947 5949 5951 5953 5954 5954 5953 5953 5953 5952 5950 5948 5945 5940 5936 5933 5930 5927 5923 5913 5908 5905 5899 5892 5882 5872 5864 5855
5908 5912 5916 5920 5922 5925 5928 5930 5932 5933 5935 5938 5940 5941 5943 5945 5946 5947 5949 5950 5950 5950 5949 5948 5947 5945 5942 5939 5935 5929 5926 5923 5920 5917 5908 5901 5895 5885 5883 5880 5868 5858 5847